User: anonymous   Login
Location: Unspecified
(0.0000°N, 0.0000°E)
Time: 18:55:43
(UTC+00:00)
Language:

KKS-1 - Orbit

View from above orbital plane
View from above orbital plane
View from above satellite
View from above satellite

Ground track
Ground track

The orbit data is extracted from the following two-line orbital elements,

1 33499U 09002H   19340.91022866 +.00000078 +00000-0 +19466-4 0  9995
2 33499 098.3344 184.9737 0009708 028.5193 331.6544 14.75485693584041
Epoch (UTC): 06 December 2019 21:50:43
Eccentricity: 0.0009708
inclination: 98.3344°
perigee height: 637 km
apogee height: 650 km
right ascension of ascending node: 184.9737°
argument of perigee: 28.5193°
revolutions per day: 14.75485693
mean anomaly at epoch: 331.6544°
orbit number at epoch: 58404

The dashed part of the orbit path shows where the satellite is in the earth's shadow,  

DLR